This is the latest recevied weather packets stored in our database for station/object K5FEP. If no packets are shown the sender has not sent any weather packets the latest 10 day(s).
| Time | Temp. | Humidity | Pressure | Rain* | Wind** | Luminosity | Snow |
|---|---|---|---|---|---|---|---|
| 1777402728 | 15.56° C | 78% | 1018.5 hPa | 0 mm | - | 105 W/m² | - |
| 1777402424 | 16.11° C | 78% | 1018.2 hPa | 0 mm | - | 125 W/m² | - |
| 1777402122 | 16.11° C | 77% | 1018.2 hPa | 0 mm | - | 132 W/m² | - |
| 1777401818 | 16.11° C | 78% | 1018.4 hPa | 0 mm | - | 139 W/m² | - |
| 1777401517 | 16.11° C | 78% | 1018.4 hPa | 0 mm | - | 112 W/m² | - |
| 1777401213 | 16.11° C | 77% | 1018.6 hPa | 0 mm | - | 128 W/m² | - |
| 1777400909 | 16.11° C | 77% | 1018.4 hPa | 0 mm | - | 200 W/m² | - |
| 1777400605 | 16.11° C | 78% | 1018.6 hPa | 0 mm | - | 265 W/m² | - |
| 1777400303 | 15.56° C | 78% | 1018.9 hPa | 0 mm | - | 217 W/m² | - |
| 1777399998 | 15.56° C | 78% | 1019 hPa | 0 mm | - | 205 W/m² | - |
| 1777399696 | 15.56° C | 78% | 1019 hPa | 0 mm | - | 155 W/m² | - |
| 1777399392 | 15.56° C | 78% | 1018.9 hPa | 0 mm | - | 94 W/m² | - |
| 1777399090 | 15.56° C | 78% | 1018.9 hPa | 0 mm | - | 105 W/m² | - |
| 1777398787 | 15.56° C | 78% | 1018.9 hPa | 0 mm | - | 121 W/m² | - |
| 1777398485 | 15.56° C | 77% | 1018.9 hPa | 0 mm | - | 132 W/m² | - |
| 1777398181 | 16.11° C | 77% | 1018.8 hPa | 0 mm | - | 221 W/m² | - |
| 1777397878 | 15.56° C | 79% | 1019.1 hPa | 0 mm | - | 176 W/m² | - |
| 1777397578 | 15.56° C | 79% | 1019.2 hPa | 0 mm | - | 130 W/m² | - |
| 1777397274 | 15.56° C | 78% | 1019.3 hPa | 0 mm | - | 123 W/m² | - |
| 1777396971 | 15.56° C | 78% | 1019.1 hPa | 0 mm | - | 180 W/m² | - |
| 1777396668 | 15.56° C | 78% | 1019.3 hPa | 0 mm | - | 97 W/m² | - |
| 1777396365 | 15.56° C | 77% | 1019.1 hPa | 0 mm | - | 117 W/m² | - |
| 1777396062 | 16.11° C | 76% | 1019.2 hPa | 0 mm | - | 203 W/m² | - |
| 1777395757 | 16.11° C | 75% | 1019.5 hPa | 0 mm | - | 312 W/m² | - |
| 1777395452 | 16.11° C | 77% | 1019.3 hPa | 0 mm | - | 462 W/m² | - |
* Rain latest hour (hover to see other rain measurements)
** Current wind speed in m/s (hover to see current wind gust speed)